Location: Moscow
(42.0495°N, 84.5099°W)
Time: 20:18:11
(UTC+00:00)

Daily predictions for brighter satellites

Satellite Brightness Start Highest point End
(mag) Time Altitude Azimuth Time Altitude Azimuth Time Altitude Azimuth
Lacrosse 5 rocket 1.3 12:00:47 10° WNW 12:03:59 43° SW 12:07:06 10° SSE
CENTAUR R/B 4.0 12:02:20 10° NW 12:10:04 36° WSW 12:18:21 10° S
Cosmos 1975 Rocket 3.2 22:36:00 10° N 22:40:16 51° E 22:44:31 10° SSE
MOS 1 Rocket 4.3 22:38:32 10° ESE 22:41:47 21° ENE 22:45:08 10° NNE
Timation 2 Rocket 4.3 22:36:24 10° S 22:43:10 66° ESE 22:49:58 10° NNE
Cosmos 2233 Rocket 4.1 22:37:40 10° S 22:43:58 89° E 22:50:20 10° N
Cosmos 2082 Rocket 3.1 22:39:54 10° N 22:44:37 27° NE 22:49:19 10° ESE
Cosmos 1484 Rocket 3.3 22:41:48 10° S 22:45:14 59° W 22:48:44 10° NNW
Cosmos 2278 Rocket 2.4 22:40:25 10° S 22:45:56 57° ESE 22:51:28 10° NNE
ARIANE 5 R/B 2.6 22:45:20 10° SE 22:50:07 50° ENE 22:54:56 10° N
Cosmos 2061 Rocket 4.1 22:46:29 10° S 22:52:48 87° W 22:59:05 10° N
ATLAS 5 CENTAUR R/B 2.3 22:48:39 10° NW 22:53:14 69° WSW 22:58:54 10° SSE
OAO 3 Rocket 4.4 22:50:27 10° WSW 22:54:41 34° S 22:58:52 10° ESE
BlueWalker 3 4.0 22:53:35 10° SSE 22:55:07 12° SE 22:56:39 10° ESE
ATLAS 2AS CENTAUR R/B 4.2 22:56:46 10° NNW 23:00:46 16° NNE 23:04:33 10° ENE
Cosmos 1869 2.9 22:58:24 10° S 23:01:55 73° E 23:05:24 10° NNE
Cosmos 407 Rocket 3.6 23:04:24 10° SSW 23:09:34 77° WNW 23:14:44 10° NNE
SJ 16-02 1.9 23:06:17 10° SSE 23:10:11 35° E 23:14:07 10° NE
IGS 5A 4.5 23:06:25 10° S 23:10:15 48° W 23:14:07 10° NNW
Cosmos 1954 Rocket 4.5 23:06:55 10° S 23:11:49 40° ESE 23:16:42 10° NE
SMAP 3.2 23:08:57 10° S 23:13:35 79° WSW 23:18:17 10° NNW
YAOGAN 1 3.7 23:10:48 10° ESE 23:14:03 22° ENE 23:17:19 10° NNE
Cosmos 44 Rocket 3.4 23:12:00 10° SW 23:16:45 75° NW 23:21:40 10° NNE
USA 215 3.2 23:10:19 10° ESE 23:16:50 73° NE 23:23:21 10° NW
IRS-P3 4.1 23:11:55 10° SSE 23:17:10 63° ENE 23:22:26 10° N
ERS-1 4.4 23:12:55 10° SSE 23:18:03 76° ENE 23:23:10 10° N
Cosmos 1833 Rocket 4.4 23:14:04 10° NW 23:19:13 37° WSW 23:24:20 10° S
BREEZE-M DEB (TANK) 2.8 23:16:52 10° WSW 23:19:15 62° NNW 23:23:12 16° ENE
COSMOS 2406 4.0 23:16:04 10° N 23:20:58 29° NE 23:25:32 11° ESE
SAR-Lupe-3 4.0 23:19:10 10° N 23:21:47 69° WNW 23:24:22 10° SSW
RESURS DK-1 2.2 23:17:55 10° NNW 23:21:56 89° SW 23:25:55 10° SSE
Landsat 7 3.8 23:21:01 10° S 23:25:40 83° W 23:30:20 10° NNW
Cosmos 540 Rocket 3.4 23:20:41 10° NNW 23:25:50 90° N 23:30:55 10° SSE
SPOT 1/Viking Rocket 3.8 23:21:33 10° SE 23:26:27 45° ENE 23:31:22 10° N
Cosmos 1400 Rocket 3.0 23:23:00 10° SSE 23:26:35 42° E 23:29:46 13° NNE
SJ-6F 4.2 23:23:31 10° SSE 23:27:25 75° ENE 23:31:20 10° N
Resurs 1-3 4.3 23:25:17 10° SE 23:28:58 29° ENE 23:32:42 10° N
SJ-12 4.0 23:25:24 10° S 23:29:10 70° WSW 23:32:58 10° NNW
Helios 1A Rocket 3.1 23:31:25 28° ENE 23:32:14 32° E 23:35:18 10° SSE
Cosmos 1763 Rocket 4.0 23:29:57 10° NNW 23:35:05 63° WSW 23:40:07 10° S
Cosmos 1072 Rocket 4.4 23:29:24 10° S 23:35:31 72° E 23:41:37 10° NNE
Spot 4 Rocket 4.2 23:31:45 10° SE 23:36:36 46° ENE 23:41:28 10° N
Cosmos 304 Rocket 3.7 23:35:29 10° S 23:40:07 59° ESE 23:43:43 17° NNE
Cosmos 1536 Rocket 3.5 23:37:49 10° N 23:42:12 61° E 23:46:32 10° SSE
Cosmos 371 Rocket 3.3 23:37:50 10° S 23:42:32 60° ESE 23:46:07 17° NNE
Okean 2 Rocket 3.0 23:40:07 10° S 23:44:27 63° E 23:48:47 10° NNE
Meteor 2-3 Rocket 4.2 23:40:20 10° N 23:45:35 37° ENE 23:50:44 10° SE
SJ-7 4.1 23:50:16 10° SSE 23:53:53 58° ENE 23:57:31 10° N
COSMO-SKYMED 1 2.3 23:52:15 21° NNE 23:54:56 66° ESE 23:59:01 10° S
Cosmos 1602 4.2 23:52:57 10° NNW 23:55:54 45° W 23:58:50 10° SSW
